Terug naar catalogus

FENGYUN 1C DEB

ActiefSSO
NORAD 33724·DEBRIS·🇨🇳 China

Gelanceerd May 10, 1999 vanaf Taiyuan Satellite Launch Center

Loading…

Volgende Passages (komende 24 uur)

TLE

VersSource: Space-Track

Epoch: Sep 14, 2026, 06:41 UTC

1 33724U 99025DHM 26257.27862781  .00000521  00000-0  26324-3 0  9995
2 33724  98.6010 264.8720 0028574 106.3725 266.8523 14.20107934978720

Volg FENGYUN 1C DEB in realtime met AllMySat

Download on the App Store